Regional Weather Roundup
Issued by NWS Newport/Morehead, NC

Current Version | Previous Version | Graphics & Text | Print | Product List | Glossary Off
Versions: 1 2 3 4 5 6 7 8 9 10 11 12 13 14 15 16 17 18 19 20 21 22 23 24 25 26 27 28 29 30 31 32 33 34 35 36 37 38 39 40 41 42 43 44 45 46 47 48 49 50
000 ASUS42 KMHX 290113 RWRMHX WEATHER ROUNDUP FOR EASTERN NORTH CAROLINA NATIONAL WEATHER SERVICE NEWPORT/MOREHEAD CITY NC 900 PM EDT WED SEP 28 2016 NOTE: "FAIR" INDICATES FEW OR NO CLOUDS BELOW 12,000 FEET WITH NO SIGNIFICANT WEATHER AND/OR OBSTRUCTIONS TO VISIBILITY NCZ015>017-031-032-045>047-102-103-290200- NORTH COAST CITY SKY/WX TMP DP RH WIND PRES REMARKS EDENTON CLEAR 76 70 81 SE5 30.01R ELIZABETH CITY PTCLDY 74 70 87 SE7 30.01R KITTY HAWK CLEAR 74 73 95 SE6 30.01R MANTEO CLEAR 73 72 95 S6 30.02R $$ NCZ045>047-081-094-103-104-290200- CENTRAL COAST CITY SKY/WX TMP DP RH WIND PRES REMARKS FRISCO PTCLDY 76 73 91 E6 30.02R $$ NCZ095-097-098-100-101-290200- SOUTHERN COAST CITY SKY/WX TMP DP RH WIND PRES REMARKS BEAUFORT PTCLDY 78 71 79 SE6 30.00R CEDAR ISLAND NOT AVBL JACKSONVILLE CLEAR 75 71 87 S3 29.99R PINEY ISLAND PTCLDY N/A N/A N/A SE5 30.00R WILMINGTON CLEAR 77 70 79 SE5 29.98S $$ NCZ011>013-027>030-043-044-078>080-089-090>093-098-290200- COASTAL PLAIN CITY SKY/WX TMP DP RH WIND PRES REMARKS AHOSKIE CLOUDY 73 70 93 SE7 29.97S CLINTON PTCLDY 72 68 88 CALM 29.96F ELIZABETHTOWN CLEAR 75 72 89 SE3 29.96S GOLDSBORO PTCLDY 76 74 92 S7 29.95F GREENVILLE PTCLDY 77 72 83 S7 30.00S HAVELOCK PTCLDY 74 68 81 SE5 30.01R KENANSVILLE CLEAR 73 72 94 SE5 29.97F KINSTON CLEAR 75 70 83 S7 29.98S NEW BERN PTCLDY 74 69 85 SE6 30.01R RICHLANDS CLEAR 74 72 93 SE3 29.99R ROCKY MOUNT LGT RAIN 74 73 97 SW9 29.96S WASHINGTON CLEAR 73 69 87 SE5 30.00R WHITEVILLE CLEAR 76 72 86 E5 29.96S $$ AMZ130-135-150-152-154-156-158-170-250-252-270-ANZ085-086-088-633-658-670-290200- MARINE OBSERVATIONS STATION/POSITION TIME TEMP WIND PRES WAVE SWELL AIR SEA DIR/SP/G HT/PER HT/PER (UTC) (F) (DEG/KT/KT) (MB) (FT/S) (FT/S) CHESAPEAKE LIGHT NOT AVBL 64 E VA BEACH 0050 75 75 110/ 4/ 4 1016.4 5/ 8 5/ 8 DUCK 0048 76 77 130/ 12/ 14 1015.8 2 E DUCK 0041 77 N/A 4/ 7 2/11 OREGON INLET 0048 75 80 120/ 5/ 10 1016.4 13E OREGON INLT 0030 77 N/A 3/ 7 3/ 7 HATTERAS CG 0048 77 78 100/ 8/ 10 1016.2 DIAMOND BUOY 0050 81 84 140/ 6/ 8 1016.8 4/11 3/11 CAPE LOOKOUT 0100 80 140/ 10/ 11 1015.8 BEAUFORT LAB 0048 79 77 150/ 6/ 8 1015.5 30 SE NEW RVR IN 0008 81 83 160/ 10/ 14 1015.3 30 SE NEW RVR IN 0025 83 N/A 3/11 2/11 27 SE WRIGHTSVLE 0008 81 82 150/ 10/ 14 1015.1 5 SE WRIGHTSVLE 0008 80 81 190/ 10/ 14 1016.2 225 S CAPE HAT 0050 82 83 200/ 14/ 17 1016.7 5/ 6 2/11 41 SE CHARLESTON 0050 83 82 180/ 12/ 14 1014.3 2/11 2/11 $$

USA.gov is the U.S. government's official web portal to all federal, state and local government web resources and services.